sat.trackr.live / text

‹ back to catalog

STARLINK-2082

NORAD 47367 · 2021-005U

PAYLOAD ACTIVE UNKNOWN

§ Identity

Operator
Country
US
Launch date
2021-01-20
Launch site
AFETR
Launch vehicle
Mass (kg)
RCS (m²)

Purposes: comms

External: N2YO · Heavens-Above · Gunter

§ Orbital elements

Epoch: 2026-05-25T04:02:19.893984Z

Period
94.01 min
Inclination
53.1608°
Eccentricity
0.0001791
Mean motion
15.31714926 rev/d
Perigee alt
469.5 km
Apogee alt
471.9 km
Semi-major
6,848.8 km
B*
1.1877e-4
RAAN
66.9632°
Arg perigee
86.1995°
Mean anomaly
273.9211°
Rev number
29,474

§ Raw data

STARLINK-20821 47367U 21005U   26145.16828581  .00003323  00000+0  11877-3 0  99992 47367  53.1608  66.9632 0001791  86.1995 273.9211 15.31714926294740

JSON: /api/v1/satellites/47367 · /tle

For live sub-satellite position, see the globe view (requires WebGL).

§ Visibility from observer

Set your observer location to see the next 7 days of passes ≥ 10°. The values pass through the URL so the page stays shareable.

No JS? Fill the form by hand. The geolocation button needs JavaScript.